Location: Westminster College Observatory
(41.1194°N, 80.3291°W)
Time: 22:22:39
(UTC-04:00)

Tiangong 2 - Visible Passes

Search period start: 22 July 2018 00:00
Search period end: 01 August 2018 00:00
Orbit: 386 x 394 km, 42.8° (Epoch: 22 July)

Date Brightness Start Highest point End Pass type
(mag) Time Alt. Az. Time Alt. Az. Time Alt. Az.
22 Jul 1.1 21:18:53 10° WNW 21:22:04 78° SSW 21:25:15 10° ESE visible
22 Jul 3.3 22:56:18 10° W 22:57:47 17° SW 22:57:47 17° SW visible
23 Jul 2.3 21:58:12 10° W 22:01:03 30° SSW 22:02:33 20° SSE visible
25 Jul 3.3 21:40:05 10° WSW 21:42:15 17° SSW 21:44:26 10° S visible
